Weather History for Yenbo, Saudi Arabia

Change the Weather History Date:

Thursday, February 14, 2013

  Actual Average Record
Temperature  
Mean Temperature 78 °F -  
Max Temperature 91 °F 84 °F 91 °F (2013)
Min Temperature 66 °F 59 °F 50 °F (1998)
Cooling Degree Days 14    
Growing Degree Days 28 (Base 50)    
Moisture  
Dew Point 50 °F    
Average Humidity 39    
Maximum Humidity 64    
Minimum Humidity 12    
Precipitation  
Precipitation 0.00 in - - ()
Sea Level Pressure  
Sea Level Pressure 29.82 in    
Wind  
Wind Speed 3 mph ()    
Max Wind Speed 14 mph    
Max Gust Speed -    
Visibility 6.0 miles    
Events      
Averages and records for this station are not official NWS values.
T = Trace of Precipitation, MM = Missing Value Source: Averaged Metar Reports

Daily Weather History Graph

Daily Weather History Graph

Search for Another Location

Airport:

Trip Planner

Search our weather history database for the weather conditions in past years. The results will help you decide how hot, cold, wet, or windy it might be!

Date:

Astronomy

Feb. 14, 2013 Rise Set
Actual Time 7:01 AM AST 6:22 PM AST
Civil Twilight 6:38 AM AST 6:45 PM AST
Nautical Twilight 6:11 AM AST 7:12 PM AST
Astronomical Twilight 5:45 AM AST 7:38 PM AST
Moon 9:26 AM AST (2/14) 10:25 PM AST (2/14)
Length of Visible Light 12h 06m
Length of Day
11h 20m
Waxing Crescent, 18% of the Moon is Illuminated
Feb 14
Waxing Crescent
Feb 17
First Quarter
Feb 25
Full
Mar 5
Last Quarter
Mar 11
New

Hourly Weather History & Observations

Time (AST) Temp. Heat Index Dew Point Humidity Pressure Visibility Wind Dir Wind Speed Gust Speed Precip Events Conditions
12:00 AM 72 °F - 54 °F 42% 29.83 in 6 mi West 4.6 mph - -  
12:00 AM 71.6 °F - 53.6 °F 53% 29.83 in - West 4.6 mph - N/A   Clear
1:00 AM 71.6 °F - 50.0 °F 46% 29.80 in - Calm Calm - N/A   Clear
2:00 AM 69.8 °F - 51.8 °F 53% 29.80 in - Calm Calm - N/A   Clear
3:00 AM 68 °F - 54 °F 50% 29.81 in 6 mi Calm Calm - -  
3:00 AM 68.0 °F - 53.6 °F 60% 29.80 in - Calm Calm - N/A   Clear
4:00 AM 68.0 °F - 53.6 °F 60% 29.77 in - Calm Calm - N/A   Clear
5:00 AM 68.0 °F - 51.8 °F 56% 29.80 in - West 2.3 mph - N/A   Clear
6:00 AM 68 °F - 52 °F 46% 29.81 in 6 mi Calm Calm - -  
6:00 AM 68.0 °F - 51.8 °F 56% 29.80 in - Calm Calm - N/A   Clear
7:00 AM 66.2 °F - 53.6 °F 64% 29.83 in - Calm Calm - N/A   Clear
8:00 AM 66.2 °F - 53.6 °F 64% 29.83 in - Calm Calm - N/A   Clear
9:00 AM 70 °F - 52 °F 42% 29.86 in 6 mi Calm Calm - -  
9:00 AM 69.8 °F - 51.8 °F 53% 29.83 in - Calm Calm - N/A   Clear
10:00 AM 84.2 °F - 37.4 °F 19% 29.86 in - ENE 13.8 mph - N/A   Clear
11:00 AM 86.0 °F - 39.2 °F 19% 29.83 in - ENE 11.5 mph - N/A   Clear
12:00 PM 89 °F - 43 °F 12% 29.87 in 6 mi ENE 9.2 mph - -  
12:00 PM 87.8 °F - 42.8 °F 21% 29.83 in - ENE 9.2 mph - N/A   Clear
1:00 PM 89.6 °F - 41.0 °F 18% 29.83 in - South 11.5 mph - N/A   Clear
2:00 PM 89.6 °F - 39.2 °F 17% 29.80 in - SW 11.5 mph - N/A   Clear
3:00 PM 88 °F - 48 °F 16% 29.81 in 6 mi West 11.5 mph - -  
3:00 PM 87.8 °F - 48.2 °F 25% 29.80 in - West 11.5 mph - N/A   Clear
4:00 PM 86.0 °F - 48.2 °F 27% 29.80 in - WSW 12.7 mph - N/A   Clear
5:00 PM 86.0 °F - 46.4 °F 25% 29.80 in - West 11.5 mph - N/A   Clear
6:00 PM 85 °F - 43 °F 14% 29.82 in 6 mi Calm Calm - -  
6:00 PM 84.2 °F - 42.8 °F 23% 29.80 in - Calm Calm - N/A   Clear
7:00 PM 82.4 °F - 51.8 °F 35% 29.83 in - West 4.6 mph - N/A   Clear
8:00 PM 80.6 °F 80.8 °F 57.2 °F 45% 29.83 in - WSW 3.5 mph - N/A   Clear
9:00 PM 79 °F - 57 °F 37% 29.86 in 6 mi Calm Calm - -  
9:00 PM 78.8 °F - 57.2 °F 47% 29.86 in - Calm Calm - N/A   Clear
10:00 PM 77.0 °F - 55.4 °F 47% 29.86 in - SW 3.5 mph - N/A   Clear
11:00 PM 75.2 °F - 57.2 °F 53% 29.86 in - SSW 2.3 mph - N/A   Clear